User: anonymous   Login
Location: �perlecques
(50.8057°N, 2.1521°E)
Time: 11:34:34
(UTC+00:00)
Language:

SAR-Lupe-2 - Orbit

View from above orbital plane
View from above orbital plane
View from above satellite
View from above satellite

Ground track
Ground track

The orbit data is extracted from the following two-line orbital elements,

1 31797U 07030A   20175.10766089 0.00000700  00000-0  26066-4 0    03
2 31797  98.1269  44.2649 0002932  76.3440 283.6558 15.27501841    04
Epoch (UTC): 23 June 2020 02:35:01
Eccentricity: 0.0002932
inclination: 98.1269°
perigee height: 481 km
apogee height: 485 km
right ascension of ascending node: 44.2649°
argument of perigee: 76.3440°
revolutions per day: 15.27501841
mean anomaly at epoch: 283.6558°
orbit number at epoch: 0

The dashed part of the orbit path shows where the satellite is in the earth's shadow,  

DLR